Theta_e
346 351 352 349 349 353 362 362 356 352 357 347 340 342 344 346 349 354 342 346 339 343 350 350 352 354 353 353 353 353 352 353 353 353 352 351 351 352 352 351 347 352 350 352 351 351 351 351 350
353 354 344 344 352 359 361 358 358 352 350 341 343 342 343 350 348 346 346 346 340 346 350 351 351 351 353 353 353 353 353 352 353 353 352 353 351 349 351 349 352 351 352 352 352 351 346 351 350
344 354 342 350 355 358 358 354 353 353 350 350 344 335 343 348 346 345 345 346 344 349 351 351 350 352 353 353 353 354 354 353 353 353 352 352 352 350 350 351 352 352 352 352 351 351 350 348 349
350 341 345 354 356 354 355 353 353 354 351 341 336 340 341 344 343 345 347 345 346 348 347 351 352 353 353 353 354 354 353 353 353 352 351 349 351 348 350 352 351 352 349 349 352 351 351 348 347
345 344 351 356 356 356 352 352 353 356 353 342 336 337 344 345 345 347 348 345 344 346 346 351 352 353 353 353 353 354 354 354 353 352 353 349 347 349 353 352 352 352 350 351 349 350 352 351 350
343 343 350 356 357 354 350 348 353 354 344 336 338 337 342 346 347 348 346 344 343 343 349 351 352 353 354 354 354 353 353 353 353 354 350 352 353 353 353 353 353 353 352 352 352 348 348 351 347
349 348 352 354 356 353 353 349 353 352 346 338 334 339 343 346 347 347 343 343 343 345 348 351 352 354 353 352 353 354 353 353 353 354 350 351 353 353 353 353 354 352 351 352 351 351 350 344 348
350 352 359 359 358 352 350 352 350 351 349 335 338 346 346 343 347 345 345 345 347 349 349 351 351 351 352 353 353 355 353 353 353 354 353 352 352 355 352 351 352 352 351 353 353 352 349 346 346
352 354 357 355 354 347 348 352 350 347 337 340 340 340 340 345 345 344 346 348 350 350 348 350 352 352 352 351 352 352 353 353 353 354 354 351 352 353 353 350 351 353 352 351 350 350 349 349 347
353 356 357 354 348 349 347 351 351 350 346 349 339 341 344 344 343 345 346 349 350 350 347 349 350 352 352 350 352 352 352 352 351 355 352 351 348 349 348 345 346 354 352 352 352 352 352 350 345
350 350 349 348 348 348 350 348 348 350 353 348 338 343 343 343 345 346 345 346 347 347 345 347 349 351 351 349 353 351 351 352 349 350 348 348 346 347 347 347 350 348 347 347 346 349 348 347 347
350 349 349 350 349 350 352 348 348 349 349 344 336 341 342 345 345 345 345 346 345 345 345 343 349 351 350 349 351 348 346 348 347 348 346 345 345 347 348 349 347 346 343 343 346 346 348 349 349
350 348 348 348 348 348 345 348 349 346 345 341 336 341 343 345 346 347 346 346 346 345 342 339 348 350 349 350 351 345 344 347 343 341 342 345 349 350 350 350 350 350 351 350 348 350 350 350 349
344 347 346 346 346 347 352 350 348 346 345 341 340 341 344 345 346 346 348 348 348 346 341 339 347 348 347 346 347 345 338 343 344 344 345 347 348 349 349 349 350 351 350 350 350 349 350 351 349
345 346 344 345 346 344 348 351 350 346 346 339 338 345 347 346 346 347 348 349 349 348 344 339 347 346 347 344 344 343 336 336 340 344 344 345 346 347 349 350 350 351 351 350 350 352 352 351 350
347 344 346 344 346 346 345 351 347 345 346 342 336 338 349 349 348 348 349 349 349 349 344 341 346 345 346 344 346 341 335 336 338 341 346 348 349 348 348 351 351 351 351 351 352 352 352 352 353
344 346 346 345 344 347 345 347 344 346 344 343 339 337 337 340 347 348 348 348 348 349 344 345 348 347 346 346 348 343 340 343 345 347 347 347 348 349 350 352 352 351 351 350 350 353 353 353 353
346 346 345 345 344 345 347 348 344 347 346 345 342 341 340 340 339 341 344 348 347 347 346 348 349 349 348 348 349 349 347 348 350 350 349 348 348 348 351 351 352 351 350 349 352 353 354 354 355
344 345 345 343 342 345 344 344 346 346 348 347 345 344 343 341 340 340 341 343 344 346 347 348 350 350 348 349 350 350 349 350 350 350 350 350 349 349 352 351 351 351 351 351 353 354 354 354 354
346 345 343 342 342 343 343 345 343 346 347 348 347 346 345 343 341 340 340 342 345 346 347 348 349 350 349 349 350 349 348 349 350 349 349 349 349 348 351 351 351 351 351 351 352 354 353 354 354
346 341 341 341 340 345 347 340 346 345 344 346 347 346 345 344 343 342 340 343 345 346 347 348 349 350 349 347 349 349 348 348 349 349 350 349 349 347 349 350 351 352 352 354 353 354 353 355 355
344 340 341 341 342 341 342 342 339 341 345 345 345 346 346 344 343 342 340 341 344 345 347 348 348 349 350 348 349 348 347 348 349 349 349 349 349 350 349 350 353 354 355 353 353 355 354 355 356
343 340 339 340 341 331 336 346 341 340 346 345 343 344 345 344 343 342 340 341 344 345 346 348 348 348 349 349 349 348 347 347 348 349 351 351 351 350 350 350 353 353 353 354 353 355 356 357 357
341 336 322 321 324 330 328 343 336 333 340 342 342 342 344 344 342 342 341 342 343 345 346 347 347 348 348 349 349 348 347 346 348 349 351 351 351 351 352 351 353 354 354 354 353 350 351 357 358
333 321 321 323 323 326 329 338 337 329 331 335 340 342 343 343 342 342 342 342 343 344 347 347 347 347 348 348 349 348 344 344 346 348 351 351 351 351 351 351 352 353 354 354 355 354 351 355 357
320 318 319 326 325 324 330 343 337 323 332 334 334 337 341 341 342 342 342 342 344 344 345 347 347 347 347 347 347 348 345 343 343 344 349 351 353 352 350 350 351 352 353 354 355 356 355 354 356
320 319 317 319 319 322 323 323 323 322 329 332 339 342 340 340 340 343 342 342 344 344 345 346 347 347 347 348 348 348 347 345 345 346 350 351 351 351 352 352 351 351 353 353 352 356 357 355 356
320 317 319 314 323 326 320 323 323 322 327 328 340 344 344 344 342 341 343 342 344 345 345 345 347 347 347 347 348 348 348 347 345 345 346 351 351 351 353 354 353 352 352 353 352 353 355 356 355
318 318 314 312 313 318 321 322 318 319 328 330 334 339 342 343 344 340 343 343 343 345 346 345 345 347 347 346 348 347 348 348 346 345 346 347 351 351 352 353 353 352 352 352 352 352 352 355 356
317 318 313 316 320 313 316 320 320 316 321 327 340 337 339 342 342 339 342 343 344 346 346 346 345 345 346 347 347 348 348 347 347 346 346 348 351 351 351 351 352 353 352 352 352 352 353 353 354
Wind_Speed
4 2 1 1 3 3 2 3 1 2 2 3 10 3 5 2 3 3 6 12 34 33 28 22 21 17 17 19 18 17 16 17 18 18 17 16 15 13 12 11 10 11 11 9 8 8 8 7 6
5 4 2 2 3 2 2 2 4 3 2 10 8 3 4 2 2 7 12 23 32 32 28 23 21 18 16 18 17 17 16 16 16 17 16 15 14 12 12 11 10 10 11 9 8 8 8 7 6
4 3 3 3 1 3 1 3 1 4 5 4 4 4 3 4 4 14 11 32 34 31 27 23 19 18 17 17 17 17 15 14 15 15 14 13 12 13 13 12 10 9 9 8 8 8 8 8 8
1 3 3 3 0 2 2 4 3 8 2 6 5 6 4 5 12 11 29 32 33 29 25 21 18 17 17 18 16 17 15 14 15 14 13 13 12 12 12 11 10 9 8 8 7 9 9 10 9
3 2 3 2 3 3 4 3 2 4 4 4 3 3 3 3 12 25 31 32 32 27 24 21 19 18 17 16 16 14 14 14 13 14 13 12 12 12 11 11 10 8 7 8 7 9 8 8 9
3 3 4 3 4 4 4 1 5 4 3 5 5 4 3 10 23 28 32 31 28 28 25 21 19 18 17 16 15 15 14 13 14 13 13 12 12 12 11 9 9 8 8 8 7 7 8 8 8
4 3 3 2 4 6 4 4 3 4 5 2 9 4 2 3 18 30 32 29 27 26 24 22 20 17 16 15 15 14 13 13 14 13 13 13 11 11 10 9 9 8 8 7 8 8 8 7 7
3 3 2 2 2 5 5 3 2 3 3 8 5 5 5 6 21 25 28 27 26 25 23 22 20 17 17 16 14 14 13 13 13 13 12 12 11 10 9 9 8 7 7 7 6 6 8 9 9
2 3 0 3 2 3 1 2 2 3 10 1 5 5 8 27 24 23 22 22 22 21 23 22 21 19 18 17 15 14 14 14 13 12 11 11 11 11 9 8 8 7 6 7 8 9 10 10 10
3 3 5 4 4 4 2 4 4 2 3 3 4 9 26 28 24 21 20 19 21 23 24 22 22 21 19 17 16 15 15 15 15 13 12 12 12 11 9 8 7 7 7 8 9 10 10 11 11
2 4 4 5 8 5 5 4 6 6 4 5 8 15 18 23 21 20 20 28 32 29 26 25 23 21 20 19 18 17 18 17 15 14 14 12 11 10 9 8 8 7 8 9 9 11 10 11 12
2 7 6 6 5 3 3 5 6 7 7 7 13 20 18 18 16 20 21 20 24 27 28 26 24 22 21 19 19 18 19 18 16 15 13 13 11 10 9 8 6 7 8 9 10 11 12 13 10
3 4 5 10 11 9 8 9 6 9 7 5 15 19 18 15 18 21 23 22 22 28 29 27 26 24 23 21 20 19 19 18 17 16 15 14 13 11 9 8 9 10 10 11 11 10 12 13 12
2 6 13 8 3 2 6 3 5 2 10 11 17 19 18 19 22 19 17 20 24 25 29 28 28 25 24 22 20 20 20 18 17 16 16 14 13 11 10 10 10 10 9 9 11 11 13 14 14
2 4 7 3 1 2 5 4 6 3 10 16 15 16 17 16 21 22 26 25 28 30 28 29 28 26 25 23 20 20 19 19 19 17 16 15 14 12 11 10 10 7 7 8 9 12 11 14 13
0 3 5 6 7 3 2 6 4 9 13 14 15 14 14 15 21 24 25 27 27 28 30 30 27 27 26 25 21 20 19 19 19 18 17 16 15 13 13 11 9 7 8 7 8 10 11 13 14
5 1 1 7 4 2 1 6 5 8 9 12 14 14 13 13 15 24 27 27 32 34 33 32 29 28 28 26 22 20 19 18 17 16 17 17 15 14 14 13 10 8 9 7 7 8 11 14 15
5 4 3 4 3 2 5 14 4 9 13 13 13 12 12 13 18 25 28 31 31 35 36 34 32 29 28 27 23 21 20 19 19 21 21 19 17 15 14 15 12 10 5 4 5 6 10 11 11
2 0 4 4 6 2 6 10 8 10 12 11 11 12 12 14 11 24 27 29 30 30 32 35 34 33 31 29 27 24 25 22 17 18 22 22 21 18 17 15 12 10 7 5 5 6 8 7 13
10 6 6 6 4 5 7 12 5 11 17 18 18 15 15 12 9 13 24 25 30 34 37 37 39 37 35 33 31 27 27 24 20 16 20 21 20 20 19 16 13 9 7 6 6 5 5 5 10
9 6 5 5 5 2 4 9 2 5 7 13 15 17 16 17 16 10 17 28 29 31 35 40 42 42 39 36 32 26 23 22 23 19 19 20 20 21 19 16 12 9 7 6 3 3 3 6 7
8 6 11 5 3 5 4 6 7 3 11 13 15 16 18 17 15 13 11 22 29 33 36 39 41 43 41 38 35 34 30 24 27 21 19 20 21 23 21 17 14 13 10 6 4 3 1 4 4
12 5 4 7 4 2 2 2 7 3 5 12 16 16 19 20 20 19 16 26 30 31 35 38 39 39 40 40 37 39 34 32 28 22 20 20 19 22 22 20 17 14 12 9 7 4 3 4 3
8 6 5 5 4 0 2 6 6 4 5 4 12 17 19 20 21 20 21 24 27 30 32 33 37 41 40 42 40 39 39 35 30 25 22 20 20 22 25 22 19 16 14 12 10 8 7 7 6
4 6 4 6 4 5 2 3 5 13 10 6 9 16 19 19 20 19 21 21 26 30 32 33 36 36 41 41 42 41 38 37 35 30 24 22 22 24 25 25 23 20 18 15 13 10 10 9 8
1 5 5 3 2 5 2 5 2 6 9 8 7 8 13 16 15 17 19 19 27 32 34 34 35 34 39 42 43 42 37 35 32 34 28 23 19 24 24 25 26 24 20 18 17 14 12 12 11
1 1 3 4 2 2 4 7 6 17 11 9 8 7 7 4 11 15 17 24 29 31 36 38 36 36 38 44 44 42 41 36 32 32 29 24 21 18 18 22 24 25 23 20 18 17 17 14 14
4 2 1 3 2 3 5 3 4 15 15 13 7 7 6 4 7 11 16 22 28 33 34 35 37 39 44 42 39 42 43 40 37 31 32 29 25 21 18 17 21 21 23 23 20 19 18 19 17
5 4 4 4 4 5 1 5 5 9 10 11 9 7 8 10 8 11 14 19 20 25 28 29 29 33 33 35 36 34 38 41 39 36 32 33 30 27 25 20 16 20 21 22 23 23 23 22 21
2 4 5 4 3 1 2 5 3 7 11 10 9 8 8 9 9 5 9 13 16 22 26 31 30 31 33 39 37 39 39 37 37 38 35 33 33 33 30 26 22 20 22 22 23 24 24 27 25
Wind_Direction
93 129 285 30 51 67 346 292 36 107 105 199 128 172 176 118 156 205 145 160 155 156 155 160 154 152 152 155 151 145 140 139 137 139 143 146 151 154 159 162 157 160 159 163 164 174 174 163 166
115 142 89 77 82 52 263 304 259 173 162 117 103 101 48 120 98 109 130 159 158 155 156 161 157 153 153 153 157 149 146 146 144 145 145 148 149 156 159 164 160 159 160 160 156 153 155 153 162
88 158 81 85 69 153 235 305 330 104 176 116 110 54 128 158 75 148 155 156 156 157 158 156 157 154 151 155 157 152 150 150 148 147 150 153 154 158 162 162 168 165 159 154 170 148 149 155 157
9 30 53 86 241 263 246 256 133 140 90 51 103 75 65 247 145 158 150 156 158 157 158 153 159 156 155 156 161 163 156 155 153 151 154 154 159 164 164 163 164 165 158 157 163 156 159 169 168
35 57 42 40 317 274 260 319 223 148 131 103 7 106 71 38 129 143 152 159 157 156 157 158 158 160 160 162 164 160 158 159 155 149 152 155 153 159 167 165 165 163 166 166 169 175 167 172 173
46 90 39 352 300 282 289 336 155 167 106 144 95 87 128 147 141 149 156 159 160 157 160 160 161 163 164 165 163 162 161 163 158 154 155 156 162 165 165 166 171 168 174 177 181 182 182 190 196
101 75 161 272 292 305 42 242 158 160 124 126 140 88 34 173 154 155 159 160 162 162 162 162 162 166 165 168 167 164 164 161 159 160 160 159 161 166 171 174 177 179 186 186 190 192 205 216 217
105 86 119 253 339 297 6 15 53 98 57 101 150 157 188 178 155 154 159 161 163 167 168 167 165 170 172 170 169 166 162 161 164 168 167 168 174 173 173 180 187 191 194 205 215 211 221 225 234
87 61 241 244 186 268 79 159 98 323 135 150 169 138 154 145 147 141 143 154 165 173 175 174 171 176 178 175 169 170 166 166 168 171 175 171 180 182 184 195 188 206 209 219 225 231 239 238 245
122 134 222 204 176 208 268 208 138 93 146 54 48 94 126 141 147 146 151 156 168 180 183 183 181 182 182 177 169 176 171 172 177 179 182 187 189 191 197 201 207 222 229 231 239 237 240 251 252
185 202 213 243 243 203 216 223 137 122 218 212 176 148 147 147 154 159 167 175 182 187 188 190 189 188 186 181 176 185 177 181 184 188 191 192 193 194 204 214 219 225 235 246 254 261 260 264 263
271 250 254 283 255 266 239 157 172 164 193 196 164 164 153 159 166 172 177 174 181 190 195 195 195 193 191 186 187 187 185 187 191 192 194 196 200 203 215 226 236 245 252 258 266 275 284 287 297
221 273 280 269 270 260 252 212 188 202 202 183 154 162 165 163 171 183 185 180 181 192 199 201 199 199 196 196 195 193 193 194 194 197 201 206 211 218 229 245 260 266 268 274 277 294 298 303 304
211 279 286 298 279 273 131 133 154 280 138 152 160 169 170 175 177 177 176 180 189 197 202 203 203 201 200 200 200 199 199 201 200 201 201 205 213 225 243 260 273 272 270 278 285 295 304 319 326
265 320 334 313 102 231 147 111 238 141 152 159 167 175 175 187 178 183 184 188 193 203 203 204 203 202 204 204 203 203 201 205 207 208 214 221 231 239 256 269 259 257 272 283 304 314 316 328 335
31 64 13 308 346 106 89 272 232 163 158 164 170 175 182 188 192 192 193 192 195 198 202 202 201 202 203 203 202 201 203 209 211 216 224 230 235 242 253 256 248 263 271 286 317 319 324 338 342
352 270 260 316 312 294 30 269 217 162 159 172 177 184 180 185 203 202 197 193 196 202 200 201 199 200 201 203 203 199 198 208 217 224 232 234 242 248 249 237 249 263 276 281 311 324 339 344 347
306 352 332 257 281 260 247 260 244 181 167 185 184 189 192 185 197 204 201 199 199 199 203 202 199 200 201 201 205 209 211 219 232 236 237 240 243 243 235 235 247 246 279 285 318 354 355 350 355
326 293 272 251 253 289 270 276 235 187 191 184 195 198 200 209 182 196 207 197 193 193 193 200 200 200 200 202 204 210 216 219 237 236 233 238 242 243 236 241 242 238 263 291 333 356 358 1 2
293 283 261 275 269 170 317 281 250 180 203 196 191 199 205 210 196 175 195 194 187 190 199 199 203 202 203 204 207 208 213 219 228 245 231 232 238 234 233 234 236 246 271 275 297 333 360 357 17
250 259 300 271 338 301 334 293 263 218 181 203 205 204 205 205 206 194 185 188 190 190 193 198 202 205 204 206 209 209 216 224 228 241 230 226 227 227 231 233 231 245 262 288 290 332 337 1 20
280 206 261 298 49 292 97 287 311 220 211 197 202 200 202 205 208 209 188 190 189 194 197 200 200 205 206 207 209 204 206 209 222 228 226 223 228 229 232 234 237 248 256 268 281 322 281 343 343
246 333 280 289 208 343 138 102 269 42 227 225 211 208 205 202 201 204 197 195 195 191 195 199 201 203 205 207 210 211 211 215 217 221 219 222 226 226 232 235 242 246 243 249 258 260 285 293 291
266 347 21 42 95 252 283 161 287 238 228 237 220 212 206 201 202 206 200 197 197 193 190 191 195 203 205 208 209 213 215 216 211 215 217 225 229 233 234 235 240 242 246 246 248 253 264 260 276
96 58 340 0 11 219 301 118 259 312 295 240 221 211 209 204 201 200 192 188 188 187 187 188 192 197 205 210 212 215 218 218 215 215 218 224 235 236 236 234 237 239 241 246 247 247 250 258 260
116 129 149 261 270 289 350 246 247 320 310 353 302 236 204 202 202 200 200 196 191 185 185 186 191 197 201 208 214 216 217 217 219 217 218 224 238 238 242 237 238 241 242 245 246 245 253 252 252
160 1 178 124 19 32 281 309 334 343 348 2 5 16 347 257 199 201 200 195 190 188 186 188 190 196 203 209 214 216 219 219 220 219 217 225 235 240 247 239 244 244 240 244 245 247 251 252 251
94 148 3 19 227 252 310 286 266 334 326 324 323 326 311 278 260 224 205 199 193 191 192 188 191 193 207 210 210 215 220 222 223 225 225 226 233 239 243 248 244 244 242 242 243 247 248 248 253
2 11 36 110 131 168 222 268 212 297 310 301 305 303 310 308 290 230 214 201 191 184 185 190 191 193 199 204 208 209 217 224 225 226 229 229 234 238 240 246 243 239 242 242 243 248 251 248 250
312 126 128 109 280 5 161 266 155 333 346 353 322 312 305 301 311 263 183 179 170 180 179 185 189 192 204 208 205 212 218 222 224 227 231 231 235 238 241 243 245 244 244 245 247 249 257 253 249